Kazan, Russia

12:46 AM MSK on December 07, 2019 (GMT +0300)
Kazan

Weather History for UWKD - November, 2019

Change the Weather History Date:

Friday, November 22, 2019

  Actual Average Record
Temperature  
Mean Temperature 14 °F -  
Max Temperature 21 °F - - ()
Min Temperature 8 °F - - ()
Degree Days  
Heating Degree Days 50    
Moisture  
Dew Point 9 °F    
Average Humidity 80    
Maximum Humidity 86    
Minimum Humidity 63    
Precipitation  
Precipitation 0.00 in - - ()
Sea Level Pressure  
Sea Level Pressure 30.84 in    
Wind  
Wind Speed 7 mph ()    
Max Wind Speed 13 mph    
Max Gust Speed -    
Visibility 6.0 miles    
Events      
T = Trace of Precipitation, MM = Missing Value Source: Averaged Metar Reports

Daily Weather History Graph

Daily Weather History Graph

Search for Another Location

Airport or City:

Astronomy

Nov. 22, 2019 Rise Set
Actual Time 7:30 AM MSK 3:26 PM MSK
Civil Twilight 6:47 AM MSK 4:09 PM MSK
Nautical Twilight 6:01 AM MSK 4:55 PM MSK
Astronomical Twilight 5:17 AM MSK 5:39 PM MSK
Moon 12:58 AM MSK (11/22) 2:18 PM MSK (11/22)
Length of Visible Light 9h 22m
Length of Day
7h 56m
Waning Crescent, 23% of the Moon is Illuminated
Nov 22
Waning Crescent
Nov 26
New
Dec 4
First Quarter
Dec 12
Full
Dec 19
Last Quarter

Hourly Weather History & Observations

Time (MSK) Temp. Windchill Dew Point Humidity Pressure Visibility Wind Dir Wind Speed Gust Speed Precip Events Conditions
12:00 AM 8.6 °F 0.3 °F 5.0 °F 85% 30.92 in - West 4.5 mph - N/A   Clear
1:00 AM 8.6 °F -2.4 °F 5.0 °F 85% 30.89 in - West 6.7 mph - N/A   Clear
1:30 AM 8.6 °F -2.4 °F 5.0 °F 85% 30.89 in - WSW 6.7 mph - N/A   Clear
2:00 AM 8.6 °F -4.4 °F 5.0 °F 85% 30.89 in - West 8.9 mph - N/A   Clear
2:30 AM 10.4 °F -2.2 °F 5.0 °F 79% 30.89 in - West 8.9 mph - N/A   Clear
3:00 AM 15 °F - 10 °F 71% 30.95 in 6 mi WNW 6.7 mph - -  
3:30 AM 10.4 °F -3.9 °F 5.0 °F 79% 30.89 in - West 11.2 mph - N/A   Clear
4:00 AM 10.4 °F -0.2 °F 5.0 °F 79% 30.86 in - WNW 6.7 mph - N/A   Clear
4:30 AM 10.4 °F -2.2 °F 6.8 °F 85% 30.86 in - WNW 8.9 mph - N/A   Clear
5:00 AM 10.4 °F -0.2 °F 5.0 °F 79% 30.86 in - WNW 6.7 mph - N/A   Clear
5:30 AM 8.6 °F 0.3 °F 5.0 °F 85% 30.86 in - WNW 4.5 mph - N/A   Clear
6:00 AM 14 °F - 9 °F 70% 30.93 in 6 mi WNW 6.7 mph - -  
6:00 AM 8.6 °F 0.3 °F 5.0 °F 85% 30.86 in - WNW 4.5 mph - N/A   Clear
7:00 AM 10.4 °F -0.2 °F 6.8 °F 85% 30.86 in - West 6.7 mph - N/A   Clear
7:30 AM 10.4 °F -2.2 °F 6.8 °F 85% 30.86 in - West 8.9 mph - N/A   Clear
8:00 AM 10.4 °F -3.9 °F 6.8 °F 85% 30.86 in - WNW 11.2 mph - N/A   Clear
8:30 AM 12.2 °F -0.0 °F 8.6 °F 85% 30.86 in - WNW 8.9 mph - N/A   Clear
9:00 AM 15 °F - 10 °F 71% 30.92 in 6 mi WNW 6.7 mph - -   Clear
9:00 AM 14.0 °F 2.2 °F 10.4 °F 86% 30.86 in - WNW 8.9 mph - N/A   Clear
9:30 AM 15.8 °F 4.4 °F 10.4 °F 79% 30.86 in - WNW 8.9 mph - N/A   Clear
10:00 AM 17.6 °F 5.2 °F 12.2 °F 79% 30.86 in - WNW 11.2 mph - N/A   Clear
10:30 AM 17.6 °F 3.9 °F 12.2 °F 79% 30.83 in - WNW 13.4 mph - N/A   Clear
11:00 AM 17.6 °F 5.2 °F 12.2 °F 79% 30.83 in - WNW 11.2 mph - N/A   Clear
12:00 PM 18 °F - 12 °F 66% 30.89 in 6 mi WNW 6.7 mph - -   Clear
1:00 PM 19.4 °F 7.4 °F 14.0 °F 80% 30.83 in - NW 11.2 mph - N/A   Clear
1:30 PM 19.4 °F 7.4 °F 14.0 °F 80% 30.83 in - NW 11.2 mph - N/A   Clear
2:00 PM 19.4 °F 8.8 °F 14.0 °F 80% 30.83 in - WNW 8.9 mph - N/A   Clear
2:30 PM 21.2 °F 9.7 °F 12.2 °F 68% 30.83 in - WNW 11.2 mph - N/A   Clear
3:00 PM 20 °F - 13 °F 63% 30.87 in 6 mi NW 4.5 mph - -   Clear
3:00 PM 19.4 °F 7.4 °F 12.2 °F 74% 30.80 in - WNW 11.2 mph - N/A   Clear
4:00 PM 15.8 °F 6.2 °F 12.2 °F 86% 30.80 in - WNW 6.7 mph - N/A   Clear
5:00 PM 15.8 °F 6.2 °F 12.2 °F 86% 30.80 in - WNW 6.7 mph - N/A   Clear
5:30 PM 15.8 °F 4.4 °F 12.2 °F 86% 30.80 in - WNW 8.9 mph - N/A   Clear
6:00 PM 20 °F - 14 °F 67% 30.86 in 6 mi WNW 6.7 mph - -  
6:00 PM 15.8 °F 4.4 °F 10.4 °F 79% 30.80 in - WNW 8.9 mph - N/A   Clear
7:30 PM 14.0 °F 0.7 °F 10.4 °F 86% 30.77 in - WNW 11.2 mph - N/A   Clear
9:00 PM 12.2 °F 4.5 °F 8.6 °F 85% 30.77 in - WNW 4.5 mph - N/A   Clear
9:30 PM 14.0 °F 4.1 °F 10.4 °F 86% 30.77 in - WNW 6.7 mph - N/A   Clear
10:00 PM 12.2 °F -0.0 °F 6.8 °F 79% 30.77 in - WNW 8.9 mph - N/A   Clear
10:30 PM 10.4 °F -0.2 °F 6.8 °F 85% 30.77 in - WNW 6.7 mph - N/A   Clear
11:00 PM 12.2 °F 1.9 °F 6.8 °F 79% 30.77 in - WNW 6.7 mph - N/A   Clear
11:30 PM 14.0 °F 2.2 °F 8.6 °F 79% 30.77 in - WNW 8.9 mph - N/A   Clear